| time (UTC) | temp F | wind direction | speed knots | gust knots | rain 1hr in | rain 24hr in | rain mn in | humidity % | barometer mb |
| 20260502233241 | 94 | 130 | 13.9 | 0.0 | 0.00 | 0.00 | 0.00 | 46 | 1008.0 |
| 20260502232240 | 95 | 110 | 11.3 | 0.0 | 0.00 | 0.00 | 0.00 | 42 | 1007.0 |
| 20260502231240 | 95 | 110 | 11.3 | 0.0 | 0.00 | 0.00 | 0.00 | 42 | 1007.0 |
| 20260502230239 | 95 | 110 | 11.3 | 0.0 | 0.00 | 0.00 | 0.00 | 42 | 1007.0 |
| 20260502225239 | 95 | 110 | 11.3 | 0.0 | 0.00 | 0.00 | 0.00 | 42 | 1007.0 |
| 20260502224239 | 95 | 110 | 11.3 | 0.0 | 0.00 | 0.00 | 0.00 | 42 | 1007.0 |
| 20260502223238 | 98 | 120 | 13.0 | 0.0 | 0.00 | 0.00 | 0.00 | 43 | 1007.0 |
| 20260502222237 | 98 | 120 | 13.0 | 0.0 | 0.00 | 0.00 | 0.00 | 43 | 1007.0 |
| 20260502221237 | 97 | 120 | 13.0 | 0.0 | 0.00 | 0.00 | 0.00 | 43 | 1007.0 |
| 20260502213206 | 96 | 120 | 13.9 | 0.0 | 0.00 | 0.00 | 0.00 | 43 | 1006.0 |
| 20260502212206 | 96 | 120 | 13.9 | 0.0 | 0.00 | 0.00 | 0.00 | 43 | 1007.0 |
| 20260502211205 | 96 | 120 | 9.6 | 0.0 | 0.00 | 0.00 | 0.00 | 43 | 1007.0 |
| 20260502203135 | 96 | 120 | 9.6 | 0.0 | 0.00 | 0.00 | 0.00 | 43 | 1007.0 |
| 20260502202134 | 96 | 120 | 9.6 | 0.0 | 0.00 | 0.00 | 0.00 | 43 | 1007.0 |
| 20260502201134 | 96 | 90 | 7.0 | 0.0 | 0.00 | 0.00 | 0.00 | 43 | 1007.0 |
| 20260502200133 | 96 | 90 | 7.0 | 0.0 | 0.00 | 0.00 | 0.00 | 43 | 1007.0 |
| 20260502195133 | 96 | 90 | 7.0 | 0.0 | 0.00 | 0.00 | 0.00 | 44 | 1007.0 |
| 20260502194132 | 95 | 90 | 7.0 | 0.0 | 0.00 | 0.00 | 0.00 | 46 | 1007.0 |
| 20260502185649 | 94 | 90 | 7.0 | 0.0 | 0.00 | 0.00 | 0.00 | 48 | 1008.0 |
| 20260502184649 | 94 | 90 | 7.0 | 0.0 | 0.00 | 0.00 | 0.00 | 50 | 1009.0 |
| 20260502183649 | 93 | 90 | 7.0 | 0.0 | 0.00 | 0.00 | 0.00 | 53 | 1009.0 |
| 20260502182648 | 92 | 90 | 7.0 | 0.0 | 0.00 | 0.00 | 0.00 | 53 | 1010.0 |
| 20260502181648 | 92 | 90 | 7.0 | 0.0 | 0.00 | 0.00 | 0.00 | 53 | 1010.0 |
| 20260502180647 | 92 | 90 | 7.0 | 0.0 | 0.00 | 0.00 | 0.00 | 53 | 1010.0 |
| 20260502163633 | 88 | 90 | 7.0 | 0.0 | 0.00 | 0.00 | 0.00 | 63 | 1011.0 |
| 20260502162633 | 87 | 90 | 7.0 | 0.0 | 0.00 | 0.00 | 0.00 | 69 | 1012.0 |
| 20260502161632 | 86 | 90 | 7.0 | 0.0 | 0.00 | 0.00 | 0.00 | 69 | 1012.0 |
| 20260502160632 | 86 | 90 | 7.0 | 0.0 | 0.00 | 0.00 | 0.00 | 69 | 1012.0 |
| 20260502151600 | 84 | 90 | 7.8 | 0.0 | 0.00 | 0.00 | 0.00 | 72 | 1012.0 |
| 20260502150600 | 84 | 90 | 7.8 | 0.0 | 0.00 | 0.00 | 0.00 | 72 | 1012.0 |
| 20260502130554 | 79 | 120 | 3.5 | 0.0 | 0.00 | 0.00 | 0.00 | 85 | 1011.0 |
| 20260502123553 | 79 | 120 | 3.5 | 0.0 | 0.00 | 0.00 | 0.00 | 85 | 1011.0 |
| 20260502122552 | 79 | 120 | 3.5 | 0.0 | 0.00 | 0.00 | 0.00 | 86 | 1011.0 |
| 20260502121552 | 79 | 120 | 3.5 | 0.0 | 0.00 | 0.00 | 0.00 | 87 | 1011.0 |
| 20260502120552 | 79 | 180 | 3.5 | 0.0 | 0.00 | 0.00 | 0.00 | 87 | 1011.0 |
| 20260502115552 | 79 | 180 | 3.5 | 0.0 | 0.00 | 0.00 | 0.00 | 87 | 1011.0 |
| 20260502114551 | 79 | 180 | 3.5 | 0.0 | 0.00 | 0.00 | 0.00 | 87 | 1010.0 |
| 20260502113550 | 79 | 180 | 3.5 | 0.0 | 0.00 | 0.00 | 0.00 | 87 | 1010.0 |
| 20260502112550 | 79 | 180 | 3.5 | 0.0 | 0.00 | 0.00 | 0.00 | 87 | 1010.0 |
| 20260502111549 | 79 | 180 | 3.5 | 0.0 | 0.00 | 0.00 | 0.00 | 87 | 1010.0 |
| 20260502110549 | 79 | 180 | 3.5 | 0.0 | 0.00 | 0.00 | 0.00 | 87 | 1010.0 |
| 20260502105548 | 79 | 180 | 3.5 | 0.0 | 0.00 | 0.00 | 0.00 | 87 | 1010.0 |
| 20260502104548 | 79 | 180 | 3.5 | 0.0 | 0.00 | 0.00 | 0.00 | 87 | 1010.0 |
| 20260502103547 | 79 | 180 | 3.5 | 0.0 | 0.00 | 0.00 | 0.00 | 87 | 1010.0 |
| 20260502102547 | 80 | 80 | 3.5 | 0.0 | 0.00 | 0.00 | 0.00 | 87 | 1010.0 |
| 20260502101547 | 79 | 80 | 3.5 | 0.0 | 0.00 | 0.00 | 0.00 | 87 | 1010.0 |
| 20260502100546 | 79 | 80 | 3.5 | 0.0 | 0.00 | 0.00 | 0.00 | 87 | 1010.0 |
| 20260502090543 | 79 | 90 | 3.5 | 0.0 | 0.00 | 0.00 | 0.00 | 86 | 1010.0 |
| 20260502070537 | 82 | 120 | 7.8 | 0.0 | 0.00 | 0.00 | 0.00 | 81 | 1010.0 |
| 20260502065537 | 82 | 120 | 7.8 | 0.0 | 0.00 | 0.00 | 0.00 | 81 | 1010.0 |
| 20260502064536 | 82 | 120 | 7.8 | 0.0 | 0.00 | 0.00 | 0.00 | 80 | 1010.0 |
| 20260502063536 | 82 | 120 | 7.8 | 0.0 | 0.00 | 0.00 | 0.00 | 79 | 1010.0 |
| 20260502062535 | 82 | 130 | 3.5 | 0.0 | 0.00 | 0.00 | 0.00 | 79 | 1010.0 |
| 20260502061535 | 82 | 130 | 3.5 | 0.0 | 0.00 | 0.00 | 0.00 | 79 | 1010.0 |
| 20260502060534 | 82 | 130 | 3.5 | 0.0 | 0.00 | 0.00 | 0.00 | 79 | 1010.0 |
| 20260502055534 | 82 | 130 | 3.5 | 0.0 | 0.00 | 0.00 | 0.00 | 79 | 1010.0 |
| 20260502054534 | 82 | 130 | 3.5 | 0.0 | 0.00 | 0.00 | 0.00 | 79 | 1010.0 |
| 20260502053533 | 86 | 140 | 7.0 | 0.0 | 0.00 | 0.00 | 0.00 | 75 | 1010.0 |
| 20260502052533 | 85 | 140 | 7.0 | 0.0 | 0.00 | 0.00 | 0.00 | 75 | 1011.0 |
| 20260502051532 | 84 | 140 | 7.0 | 0.0 | 0.00 | 0.00 | 0.00 | 75 | 1010.0 |
| 20260502050531 | 83 | 140 | 7.8 | 0.0 | 0.00 | 0.00 | 0.00 | 75 | 1010.0 |
| 20260502045531 | 83 | 140 | 7.8 | 0.0 | 0.00 | 0.00 | 0.00 | 75 | 1010.0 |
| 20260502044531 | 83 | 140 | 7.8 | 0.0 | 0.00 | 0.00 | 0.00 | 75 | 1010.0 |
| 20260502043530 | 83 | 140 | 7.8 | 0.0 | 0.00 | 0.00 | 0.00 | 75 | 1010.0 |
| 20260502042530 | 83 | 140 | 7.8 | 0.0 | 0.00 | 0.00 | 0.00 | 74 | 1010.0 |
| 20260502041529 | 83 | 140 | 7.8 | 0.0 | 0.00 | 0.00 | 0.00 | 72 | 1010.0 |
| 20260502033459 | 83 | 140 | 7.8 | 0.0 | 0.00 | 0.00 | 0.00 | 72 | 1010.0 |
| 20260502032458 | 83 | 140 | 7.8 | 0.0 | 0.00 | 0.00 | 0.00 | 72 | 1009.0 |
| 20260502024428 | 83 | 140 | 3.5 | 0.0 | 0.00 | 0.00 | 0.00 | 72 | 1009.0 |
| 20260502013327 | 86 | 140 | 9.6 | 0.0 | 0.00 | 0.00 | 0.00 | 69 | 1008.0 |
| 20260502012327 | 86 | 140 | 9.6 | 0.0 | 0.00 | 0.00 | 0.00 | 69 | 1008.0 |
| 20260502011326 | 86 | 140 | 9.6 | 0.0 | 0.00 | 0.00 | 0.00 | 69 | 1007.0 |
| 20260502010326 | 85 | 140 | 9.6 | 0.0 | 0.00 | 0.00 | 0.00 | 69 | 1007.0 |
| 20260502005325 | 85 | 140 | 9.6 | 0.0 | 0.00 | 0.00 | 0.00 | 69 | 1007.0 |
| 20260502004325 | 88 | 140 | 9.6 | 0.0 | 0.00 | 0.00 | 0.00 | 66 | 1007.0 |
| 20260502003324 | 88 | 140 | 9.6 | 0.0 | 0.00 | 0.00 | 0.00 | 66 | 1007.0 |
| 20260502002324 | 88 | 140 | 9.6 | 0.0 | 0.00 | 0.00 | 0.00 | 66 | 1007.0 |
| 20260502001324 | 88 | 100 | 9.6 | 0.0 | 0.00 | 0.00 | 0.00 | 66 | 1006.0 |
| 20260502000324 | 87 | 100 | 9.6 | 0.0 | 0.00 | 0.00 | 0.00 | 66 | 1006.0 |
| 20260501235322 | 87 | 100 | 9.6 | 0.0 | 0.00 | 0.00 | 0.00 | 66 | 1006.0 |
| 20260501234322 | 87 | 100 | 9.6 | 0.0 | 0.00 | 0.00 | 0.00 | 66 | 1006.0 |